timestamp,gas_concentrations,,corrected_fluxes_and_quality_flags,,,,,,,,,,storage_terms,,,turbulence,,,footprint,,
ISOdate,CO2_1_1_1,H2O_1_1_1,Tau_1_1_1,QcTau_1_1_1,H_1_1_1,QcH_1_1_1,LE_1_1_1, QcLE_1_1_1,Fc_1_1_1, QcFc_1_1_1,E_1_1_1, QcE_1_1_1,Sa_1_1_1,Sw_1_1_1,Sc_1_1_1,ustar_1_1_1,MO_length_1_1_1,ZL_1_1_1,Fetchmax_1_1_1,Fetch70_1_1_1,Fetch90_1_1_1
yyyymmddHHMM,[µmol+1mol_a-1],[mmol+1mol_a-1],[kg+1m-1s-2],[#],[W+1m-2],[#],[W+1m-2],[#],[µmol+1s-1m-2],[#],[mmol+1s-1m-2],[#],[W+1m-2],[W+1m-2],[µmol+1s-1m-2],[m+1s-1],[m],[#],[m],[m],[m]
201805080030,418.08996956465069,5.9379353923219336,0.32310008356231334,0,-1.5665902723579039,2,24.650264715888138,0,1.5323944914468726,0,0.55944085939321475,0,-9999.,-9999.,-9999.,0.53908224956127759,8391.5336730619583,2.57402291899741032E-003,111.35074693225047,203.58467889140968,305.00694696500506
201805080100,418.28237407429026,5.9027453751137928,0.12035037048833544,0,-19.660252559660922,0,14.269999662792841,0,1.0452953554693734,0,0.32365542639983280,0,-14.215584668850340,-1.1632881321533997,0.14425869367066796,0.32863175554156876,151.49232218173444,0.14258148326545575,100.78554082255403,184.26811252322179,276.06721060620737
201805080130,418.24508439619456,5.7880909953719986,2.18512597185147560E-003,2,-2.1135578571685198,1,1.6934610837207726,1,0.11084733029998675,1,3.83886377556332328E-002,1,-12.052809332229415,-3.7996013919845262,-2.80132504149165178E-002,4.42374978877272118E-002,3.4373374796870024,6.2839334594422356,2040.8799406921121,-9999.,-9999.
201805080200,417.76504256348710,5.6463438595900151,7.71150028945362474E-003,1,1.5907682156552800,2,0.59526873337263198,1,-1.79138808509642089E-002,1,1.34895462713854851E-002,1,-7.4704082983498195,-4.7051218992111004,-0.36109372631866182,8.30476019877468691E-002,-30.218385542224393,-0.71479662504861974,165.20014956313233,513.00000000000000,1151.0000000000000
201805080230,417.22550730003934,5.5392233362911973,8.50667546218478589E-004,1,-0.46876838517901798,1,0.16990551354780600,1,7.17678375223864198E-003,1,3.84918964742282524E-003,1,-6.3955013478026919,-3.5606737740649783,-0.40629471392240141,2.75669383730839067E-002,3.7508514715863881,5.7586924365374781,3959.4746751906891,-9999.,-9999.
201805080300,416.68974785895921,5.4146464933296787,8.48950197893253225E-004,2,-0.12169521097723802,1,1.92479939825962627E-002,2,8.05818002769183653E-003,1,4.35921178740801866E-004,2,-7.2897419242253285,-4.1473861584098870,-0.40395173802035012,2.75213861773575576E-002,14.377472242027194,1.5023503183584965,2648.8113213078382,-9999.,-9999.
201805080330,416.88160974753129,5.3772049774413713,6.13347781505337204E-003,1,4.7247919365941886,1,0.80751623829100450,1,0.23452509538177166,2,1.82879581070449597E-002,1,-0.44695251258623164,-1.2466496383425814,0.14467505653291796,7.39702126879259597E-002,-7.1902023479960455,-3.0040879177788447,248.84587865525845,708.00000000000000,1499.0000000000000
201805080400,417.40582363603909,5.3529157791801483,3.67314275036681155E-003,1,0.45952791995163705,1,0.93529307420219765,1,0.47393434501649401,1,2.11711486066739375E-002,1,-11.391005574237379,-0.81052745658208303,0.39596771410417786,5.71935717403236413E-002,-34.171375777555255,-0.63210800000003231,709.02354804062304,2122.0000000000000,4646.0000000000000
201805080430,417.70888870253305,5.4306476155379917,3.47925089107177926E-002,0,-34.829324225020329,0,8.3720884195414698,0,1.9825593108079111,0,0.18943152387658721,0,-9.3640221781101669,2.5986855896514567,0.22924989018126218,0.17590030119141123,13.115455774034146,1.6469118856520011,361.23875540763953,3239.0000000000000,-9999.
201805080500,418.02629279849276,5.5716121065165902,8.99534820250839640E-002,0,-99.404954224260422,0,31.982252158741744,0,5.7329691034320556,0,0.72318115746389833,0,-14.769321741987953,4.7260211422252363,0.24062265725253626,0.28253283706842702,19.041497122160393,1.1343645860105209,143.55033219307569,1213.0000000000000,5596.0000000000000
201805080530,418.59491118837144,5.6997504134226888,6.34973189429827167E-002,0,-79.433692289626350,0,21.775489952126733,0,3.7533467936924594,0,0.49206178825523988,0,-15.128054823084147,4.3086845265409837,0.43205429032669068,0.23711087020033861,14.084388383199560,1.5336129203711375,270.40649961850431,2361.0000000000000,-9999.
201805080600,419.03735373468317,5.7438590341523996,7.91091947328301376E-002,0,-59.578382503007759,0,11.582513258711163,0,2.2252940384444662,0,0.26157132145182843,0,-14.006454750561113,1.4872832422588642,0.33691039467491490,0.26437527009541950,26.029066415950975,0.82984151850960053,102.64873949656099,187.67463393604535,281.17080043209216
201805080630,419.43909916373866,5.7674453915792547,8.55572933534399088E-002,0,-61.918895182745885,0,9.3277573246871803,0,2.0775252565704472,0,0.21058968893331004,0,-6.7622845968341165,0.79635213091922774,0.30623517924421367,0.27479859122698874,28.125369493444861,0.76798991049821697,107.14376501652255,195.89297420139491,293.48337172725763
201805080700,420.92992819673418,5.8902316436130020,0.10538299638120094,0,-55.416332894441886,0,7.9445561305777064,0,2.0863316436902908,0,0.17927633759253792,0,-10.978986880153336,4.1540812986139715,1.1381681391865877,0.30475029558581274,42.857937099102415,0.50399065988764946,106.26555005907220,194.28731716688085,291.07780490053568
201805080730,422.38122804018661,6.0197464495649706,0.14583706807853039,0,-74.969397830112428,0,9.8929571624690116,0,3.1939324486562168,0,0.22306561397247479,0,-18.500242427619661,4.3973596813295179,1.1110566902982544,0.35801666348594496,51.361027288711817,0.42055233589043250,107.10246680388448,195.81746789730317,293.37024952467812
201805080800,423.65366122147719,6.0841754159039922,0.13557650537356042,0,-78.092842908587386,0,10.563597033968280,0,3.6099050950876976,0,0.23803426009608114,0,-14.919179250092515,2.1939713364321101,0.97636547600516443,0.34480028760690085,44.044865909131417,0.49040903074975356,99.146611000469306,181.27162609859383,271.57792791079709
201805080830,423.79495107105504,6.1398733277316975,0.11835640516514459,0,-67.100125213008170,0,7.3200873934260775,0,2.6073326464435866,0,0.16494781094511224,0,0.14167726440909090,1.8968404737180513,0.10842592789712675,0.32214655444686985,41.810323109753526,0.51661882505187207,99.433062770692686,181.79535129366849,272.36256368824468
201805080900,423.75787525520883,6.3453740333052338,0.15962009766161672,0,-82.054539048652572,0,4.0563178794611510,1,2.8814307456976342,0,9.14675821912827036E-002,1,16.279116081124680,6.9777524131826842,-2.83875669942767542E-002,0.37455075068310700,53.749705971451299,0.40186266342503640,96.525705077115276,176.47977417563123,264.39886054045343
201805080930,427.29393852984703,6.8027241691928886,0.19749778807908758,0,-74.209714130084052,0,2.8131873293002583,2,2.6996800365664289,1,6.33829407206188827E-002,2,-19.361656902834632,15.591145493363383,2.7159575129791045,0.41600917221849326,81.445324527726896,0.26520859392790053,95.230698805475058,174.11208969000631,260.85163773238514
201805081000,430.58912339541729,7.1833404004475723,0.18418853700233939,0,-53.441437624828858,0,-4.8280521645428705,1,0.29714550389180427,0,-0.10871743597276724,1,-13.238259528579279,13.008490885699830,2.5359847880557878,0.40137698332254562,101.57839003458513,0.21264365375987643,104.68457522390040,191.39679094212474,286.74726989300990
201805081030,432.50434992774467,7.3591462316880198,0.25579188196187130,0,-71.542379750232129,0,2.1299398261204927,0,1.8761099307155216,0,4.79407704241792201E-002,0,-10.202798513148020,6.0205878895464400,1.4762620281305416,0.47265123749734883,123.90343694921482,0.17432930459268331,105.30699674699262,192.53477599750053,288.45217887399025
201805081100,434.66540835587352,7.4991054701637694,0.37261535510482779,0,-79.064523198151505,0,9.5893613970973313,1,2.9103033853493301,0,0.21576617264996173,1,-7.7641015451865538,4.8012370441985937,1.6680603454305825,0.57008333315034965,196.75338718737746,0.10978209986001060,110.97425996009702,202.89634063195197,303.97569082068395
201805081130,436.03841659307250,7.6455394748355987,0.26935779142068023,0,-52.820945723635887,0,8.2415453514158656,0,0.96479032820427379,0,0.18537967809252137,0,-7.5728523579719820,5.0323925257574418,1.0613513647148614,0.48435568813763163,180.66665232907656,0.11955720505993839,104.03894698828420,190.21637661485380,284.97879413110491
201805081200,437.04217788008992,7.7913203643149638,0.21703055178630593,0,-33.409362255527753,0,11.976746999379296,0,1.2380498349359901,0,0.26936940365026052,0,-2.3833475163418192,5.0141459506915318,0.77649060705549966,0.43462250749746134,206.43482526988208,0.10463350828408575,96.746763997835473,176.88394038583445,265.00437517206404
201805081230,436.53385214091782,7.9888097689158730,0.32151190809597646,0,-0.40261176469301163,2,29.931888192843353,0,2.65212053630214072E-002,2,0.67344703048127619,0,8.6365276844460563,6.7822818026765930,-0.39277465787987165,0.52932057409262578,30949.653264309105,6.97907657172655593E-004,108.20817980093395,197.83906390498274,296.39896872720652
201805081300,436.25760196270255,8.1864471124580458,0.20303051264475772,0,-11.348521980969094,2,16.490978326008431,1,1.9808095188240853,2,0.37133308432658751,1,18.734435921977195,6.7669116244930869,-0.21298120882488450,0.42111285155166656,553.19043280260280,3.90462284218635741E-002,112.09936310365084,204.95338801161154,307.05752263852418
201805081330,433.28655355996062,8.4987706996117218,0.24425542454648799,1,98.151070359800784,1,48.274496888319312,1,0.62742842365407991,1,1.0884748552915864,1,31.231796619573664,10.626660106437301,-2.2793046558245078,0.46306153785595594,-85.043568787181002,-0.25398745969907915,111.35025385651750,203.58377739171135,305.00559635418222
201805081400,429.18374997532220,8.6559983479162366,0.26887188224348985,0,86.378461354419628,0,31.234355289910315,0,-1.8023137157522644,1,0.70530574848726668,0,34.261257919768063,5.3138480489551556,-3.1311640105470238,0.48712007369761118,-112.50570877517076,-0.19199025751808760,89.920830075017534,164.40395615495734,246.30708464333242
201805081430,427.00599211330234,8.5823513386120602,0.37512634452608562,0,121.15795223921529,0,69.198357695686454,1,3.5485853907480021,2,1.5639970729664798,1,20.928543810057828,-2.4787842915148142,-1.6566598944618829,0.57629746544812244,-132.82116409107334,-0.16262468521348922,105.42269834671973,192.74631542293426,288.76910348082026
201805081500,423.91373616100446,8.4698821044305141,0.62038066513822510,0,175.97974767314088,0,59.517465134018558,0,1.1017317676236562,0,1.3467376986546322,0,26.258360252143490,-3.7659081483808730,-2.3428798138956157,0.74259562355226127,-195.65384905656038,-0.11039905478044436,119.10363778649209,217.75943603067932,326.24331613856702
201805081530,422.13544504543984,8.7134177229709504,0.39521215211571559,0,146.84238875267778,0,38.707663571678893,1,6.87495976502665584E-002,1,0.87620380675786846,1,8.9162488984610899,8.1410173368664100,-1.3456348554068005,0.59310770884230701,-119.48102636380666,-0.18078184174808110,107.09787449636630,195.80907169451856,293.35767048291831
201805081600,418.69438337357894,8.9322594067107861,0.31015532693831865,0,134.44455285176159,0,37.663986392393490,0,-2.5926641800190771,0,0.85306991438101387,0,13.122985572005815,7.2979769797282783,-2.5991014968685513,0.52592385284792753,-91.003673959168665,-0.23735305466558904,92.039453901439771,168.27747621007012,252.11032353366090
201805081630,417.52129873989952,8.8960179187295960,0.51860901460383346,0,127.39350032178068,0,49.542642111668300,0,-2.7121524712602465,0,1.1222358499609022,0,2.4450714007084922,-1.2082933462310574,-0.88593260209378588,0.68011133578805372,-207.73011751679411,-0.10398107052653899,114.78484426591338,209.86330406651498,314.41347159261687
201805081700,417.59633919084962,8.7920598750281229,0.47020389815983565,0,169.26316939288012,0,43.883444119068791,0,-0.81589791841099846,0,0.99406147286156910,0,0.39647657655824459,-3.4657764865991192,5.66696362254128921E-002,0.64759383392574155,-134.97472211184564,-0.16002996458923135,111.51576825527835,203.88639050075619,305.45896593485969
201805081730,417.51628422993633,8.6452416962378358,0.28761835246449813,0,145.62801029804359,0,49.116347357553508,0,-1.5229204574055943,0,1.1128880853414640,0,5.9113378389781976,-4.8881416336657182,-6.03917520236569513E-002,0.50674398166634671,-75.157214449725302,-0.28739755934473632,90.280981590346471,165.06242798941310,247.29359544062532
201805081800,417.37525930295487,8.6448282596730071,0.41361430304444313,0,94.670829532355484,0,33.870786694206721,0,-0.88083573071930843,0,0.76757836332764384,0,3.7670643110114268,-1.37527043032930618E-002,-0.10630961509878856,0.60790316025945568,-199.57019568986357,-0.10823259417737342,117.42743486130900,214.69480248594101,321.65193663920030
201805081830,417.33253902239875,8.6231838168789139,0.38965044160219381,0,95.088592949876514,0,33.554353560974718,0,-0.36176120722057359,0,0.76036787498232905,0,-1.1800922972275520,-0.72011277144501673,-3.22079499821414164E-002,0.58999219696879790,-181.63427883522172,-0.11892028387216204,122.32626438389431,223.65142525476801,335.07058965726122
201805081900,416.47222966750701,8.6656839868175624,0.20735514551560852,1,70.849156546910848,0,44.685812042074986,0,-1.2405972277284736,0,1.0124122793247572,0,-4.5615037416904762,1.4150075933393025,-0.64894889718145188,0.43028495168572722,-94.550908138793986,-0.22844836104897842,96.806624239175790,176.99338399844930,265.16834164699850
201805081930,417.37727388291717,8.5707468088111458,0.31976876665366855,0,77.320816866513070,0,35.057780268965203,0,-1.0885367340787448,0,0.79339065866305758,0,-25.508260216701821,-3.1766468562082957,0.68533842846267712,0.53329711284298276,-164.93185739230233,-0.13096317680230110,112.14502615614764,205.03687463505929,307.18260081370357
201805082000,416.75088289985666,8.3032433184331875,0.29776039362711848,0,48.225604912798708,0,31.339651663714591,0,-1.5332882752559551,0,0.70819818839549808,0,-33.977807574237431,-9.0106332625648253,-0.47679534295140286,0.51325954141477304,-235.70934902038402,-9.16382828673123345E-002,107.60576154734730,196.73765120597872,294.74885180042691
201805082030,417.25545117034608,8.0249597659283580,0.13144513061054824,0,26.149895416225803,0,15.047258464535819,0,-1.3355495150407546,0,0.33979014161943494,0,-16.314218655903943,-9.4015219255595071,0.38493194548201898,0.34061529208654068,-127.01539378297772,-0.17005812726059333,83.644352368898367,152.92855312827791,229.11483981715182
201805082100,416.46226770182176,7.8573821361188623,0.13918366410008046,0,2.7291282020960277,2,8.1158802555171015,1,-0.81909736278119627,1,0.18314148533724134,1,-16.098914526980487,-5.6786195156614507,-0.60652887711286707,0.35007840126814022,-1321.1148263419232,-1.63498278645535511E-002,87.161313537738764,159.35867982215242,238.74834132707119
201805082130,415.02421503490859,8.1923370504293160,0.19559148546421126,0,-8.4292483266116438,2,13.144157309471654,1,-1.2006176244191762,2,0.29638293072071492,1,-17.670372330027170,11.389478153835420,-1.1025865841622990,0.41447057336480186,709.83928666289535,3.04294231185007688E-002,101.22557720174919,185.07263936679556,277.27253842186639
201805082200,459.90481176550111,8.9872091195833548,0.12224752096997774,1,39.369803357271230,2,368.70417130697081,1,-118.38697367249522,1,8.3013138022521940,1,-35.069715289804748,27.225900549074826,34.610862334850005,0.32677309885961037,-74.508836229843311,-0.28989850188196165,116.50010458250540,212.99934697946489,319.11183533805519
201805082230,428.57409818402795,9.4679381591062590,0.15143837340095095,0,-2.5068374846629631,1,109.66411046565422,0,-31.107016799167710,1,2.4641308297461357,0,-47.230199803546185,16.622569570388549,-24.342620604770755,0.36237833206687520,1596.1459798311557,1.35325968131592214E-002,101.39447988625911,185.38144734282801,277.73518904214382
201805082300,446.55887814167716,9.4094135358137958,0.14777337974025384,0,6.1101707085753398,1,395.39264572734663,2,-83.046762854635304,1,8.8761633550953825,2,-21.977663632878720,-2.0330748657372344,14.025442502492027,0.35729779357577451,-627.82771087225206,-3.44043431437435973E-002,102.66907924773443,187.71182148822132,281.22651416171101
201805082330,531.74453524112994,9.6913860208763385,9.66770357519889101E-002,0,-9.5534018224121713,0,-9999.,-9999.,-22.446019427863163,0,-9999.,-9999.,-22.292329099548649,-2810.9841323505011,66.668371414326245,0.28850023302405398,211.41335996543779,0.10216951286111343,106.46612412148943,194.65403052279575,291.62720833161876
201805090000,529.35199991875447,9.7420308021461448,7.04310910089362557E-002,0,-16.156588490919980,1,-9999.,-9999.,-5.2563778918569071,2,-9999.,-9999.,-12.091706431690325,-506.17802208382619,-1.8763281204052460,0.24599277781675949,77.505358199616850,0.27869040930523409,113.17352663697544,206.91730153741668,309.99982297208027
